Location: Kershaw
(34.5481°N, 80.5823°W)
Time: 18:09:27
(UTC+00:00)

Transit 2A - Pass Details

Date: 03 October 2022
Orbit: 598 x 959 km, 66.7° (Epoch: 06 December)

Event Time Altitude Azimuth Distance (km) Brightness Sun altitude
Rises 14:21:32 0° 318° (NW) 3,041 8.6 34.4°
Reaches altitude 10° 14:24:04 10° 306° (NW) 2,178 7.9 34.9°
Maximum altitude 14:28:09 26° 250° (WSW) 1,446 7.4 35.5°
Drops below altitude 10° 14:32:33 10° 195° (SSW) 2,365 8.9 36.3°
Sets 14:35:27 0° 183° (S) 3,359 9.7 36.7°
